El Centro, CA

5:31 AM PDT on July 28, 2017 (GMT -0700)
El Centro Naval Air Facility

Weather History for KNJK - June, 2013

Change the Weather History Date:

Tuesday, June 18, 2013

  Actual Average Record
Temperature  
Mean Temperature 86 °F -  
Max Temperature 109 °F 99 °F 118 °F (2015)
Min Temperature 64 °F 72 °F 63 °F (2003)
Cooling Degree Days 22    
Growing Degree Days 36 (Base 50)    
Moisture  
Dew Point 37 °F    
Average Humidity 19    
Maximum Humidity 52    
Minimum Humidity 6    
Precipitation  
Precipitation 0.00 in - - ()
Sea Level Pressure  
Sea Level Pressure 29.73 in    
Wind  
Wind Speed 9 mph (SSE)    
Max Wind Speed 21 mph    
Max Gust Speed 25 mph    
Visibility 10 miles    
Events      
Averages and records for this station are not official NWS values.
T = Trace of Precipitation, MM = Missing Value Source: NWS Daily Summary

Daily Weather History Graph

Daily Weather History Graph

Search for Another Location

Airport or City:

Trip Planner

Search our weather history database for the weather conditions in past years. The results will help you decide how hot, cold, wet, or windy it might be!

Date:

Astronomy

Jun. 18, 2013 Rise Set
Actual Time 5:34 AM PDT 7:53 PM PDT
Civil Twilight 5:05 AM PDT 8:22 PM PDT
Nautical Twilight 4:30 AM PDT 8:57 PM PDT
Astronomical Twilight 3:52 AM PDT 9:35 PM PDT
Moon 2:54 PM PDT (6/18) 1:31 AM PDT (6/18)
Length of Visible Light 15h 16m
Length of Day
14h 18m
Waxing Gibbous, 72% of the Moon is Illuminated
Jun 18
Waxing Gibbous
Jun 23
Full
Jun 29
Last Quarter
Jul 8
New
Jul 15
First Quarter

Hourly Weather History & Observations

Time (PDT) Temp. Heat Index Dew Point Humidity Pressure Visibility Wind Dir Wind Speed Gust Speed Precip Events Conditions
12:56 AM 82.0 °F - 28.9 °F 14% 29.75 in 10.0 mi North - - N/A   Clear
1:56 AM 78.1 °F - 30.0 °F 17% 29.75 in 10.0 mi North - - N/A   Clear
2:56 AM 78.1 °F - 32.0 °F 19% 29.75 in 10.0 mi North - - N/A   Clear
3:56 AM 75.9 °F - 30.0 °F 19% 29.75 in 10.0 mi North - - N/A   Clear
4:56 AM 73.0 °F - 48.0 °F 41% 29.75 in 6.0 mi North - - N/A   Clear
5:56 AM 64.9 °F - 46.9 °F 52% 29.77 in 10.0 mi ESE 4.6 mph - N/A   Clear
6:56 AM 77.0 °F - 54.0 °F 45% 29.78 in 10.0 mi South 5.8 mph - N/A   Clear
7:56 AM 82.0 °F 82.0 °F 57.9 °F 44% 29.79 in 8.0 mi SSE 8.1 mph - N/A   Clear
8:56 AM 87.1 °F 85.1 °F 54.0 °F 32% 29.79 in 10.0 mi SE 8.1 mph - N/A   Clear
9:56 AM 91.9 °F - 46.9 °F 21% 29.79 in 10.0 mi ESE 6.9 mph - N/A   Clear
10:56 AM 96.1 °F - 39.9 °F 14% 29.79 in 10.0 mi ESE 5.8 mph - N/A   Clear
11:56 AM 99.0 °F - 37.0 °F 12% 29.78 in 10.0 mi East 6.9 mph - N/A   Clear
12:56 PM 102.0 °F - 32.0 °F 9% 29.75 in 10.0 mi East 6.9 mph - N/A   Clear
1:56 PM 104.0 °F - 30.0 °F 8% 29.72 in 10.0 mi East 6.9 mph - N/A   Clear
2:56 PM 106.0 °F - 30.9 °F 7% 29.70 in 10.0 mi ESE 9.2 mph - N/A   Clear
3:56 PM 107.1 °F - 28.0 °F 6% 29.67 in 10.0 mi ESE 8.1 mph - N/A   Clear
4:56 PM 109.0 °F - 28.9 °F 6% 29.65 in 10.0 mi SSW 13.8 mph - N/A   Clear
5:56 PM 104.0 °F - 33.1 °F 9% 29.65 in 10.0 mi WSW 20.7 mph 25.3 mph N/A   Clear
6:56 PM 100.0 °F - 30.9 °F 9% 29.67 in 9.0 mi WSW 17.3 mph 23.0 mph N/A   Clear
7:56 PM 93.9 °F - 36.0 °F 13% 29.67 in 10.0 mi WSW 15.0 mph - N/A   Clear
8:56 PM 91.0 °F - 35.1 °F 14% 29.68 in 10.0 mi SW 18.4 mph - N/A   Clear
9:56 PM 87.1 °F - 35.1 °F 16% 29.69 in 10.0 mi WSW 13.8 mph - N/A   Clear
10:56 PM 84.9 °F - 34.0 °F 16% 29.70 in 10.0 mi WSW 11.5 mph - N/A   Clear
11:56 PM 82.0 °F - 34.0 °F 18% 29.69 in 10.0 mi North - - N/A   Clear